Terminal Aerodrome Forecast
Issued by NWS Lake Charles, LA

Home | Current Version | Previous Version | Text Only | Print | Product List | Glossary On
Versions: 1 2 3 4 5 6 7 8 9 10 11 12 13 14
073
FTUS44 KLCH 272320
TAFLFT
TAF
KLFT 272320Z 2800/2824 12005KT P6SM VCTS FEW025CB BKN050
     FM280200 VRB04KT P6SM BKN250=

USA.gov is the U.S. government's official web portal to all federal, state and local government web resources and services.